Total_Precipitation_Accumulation
0.21 0.28 0.37 0.40 0.32 0.32 0.35 0.42 0.60 0.62 0.81 1.12 1.22 1.09 1.16 1.31 1.13 0.97 1.01 0.98 0.90 1.02 1.23 1.32 1.36 1.35 1.29 1.30 1.32 1.49 1.78 1.96 2.08 2.16 2.11 2.06 1.93 1.81 1.76 1.76 1.72 1.80 1.98 2.04
0.24 0.32 0.39 0.42 0.34 0.28 0.28 0.31 0.38 0.51 0.81 0.95 0.89 0.93 1.02 1.07 1.05 1.05 1.11 1.06 0.98 0.99 1.06 1.20 1.29 1.34 1.35 1.43 1.51 1.57 1.60 1.68 1.85 2.00 2.03 1.98 1.81 1.71 1.76 1.79 1.84 1.88 1.86 1.90
0.38 0.38 0.47 0.53 0.41 0.37 0.33 0.31 0.42 0.67 0.95 0.93 0.90 0.99 0.95 0.98 0.95 1.06 1.12 1.01 0.96 0.97 1.00 1.08 1.11 1.19 1.46 1.50 1.49 1.52 1.61 1.70 1.89 1.97 1.93 1.88 1.75 1.75 1.79 1.80 1.86 1.86 1.76 1.78
0.51 0.67 0.83 0.59 0.39 0.39 0.39 0.44 0.54 0.67 0.74 0.77 0.79 0.90 0.92 0.87 0.88 0.86 0.93 0.88 0.88 0.94 1.00 1.02 1.01 1.02 1.17 1.35 1.47 1.54 1.60 1.68 1.80 1.86 1.98 2.08 2.02 1.90 1.90 1.89 1.83 1.84 1.81 1.82
0.66 0.87 0.76 0.54 0.47 0.49 0.56 0.68 0.70 0.74 0.77 0.79 0.80 0.96 1.11 0.90 0.81 0.79 0.79 0.83 0.92 1.02 1.00 0.99 1.00 1.03 1.15 1.30 1.45 1.61 1.68 1.74 1.77 1.91 2.09 2.10 1.97 1.95 2.00 1.96 1.81 1.76 1.76 1.78
0.80 1.02 0.98 0.78 0.58 0.50 0.63 1.10 0.84 0.78 0.83 0.87 0.94 1.20 1.29 0.97 0.84 0.82 0.85 0.90 0.86 0.86 0.88 0.95 1.05 1.14 1.21 1.39 1.62 1.74 1.77 1.86 1.94 2.01 2.15 2.30 2.34 2.29 2.19 2.14 2.05 1.99 1.90 1.89
0.93 1.09 0.96 0.71 0.57 0.64 1.13 1.42 1.04 0.97 1.00 1.00 1.10 1.12 1.05 0.94 0.84 0.84 0.88 0.94 0.96 1.00 1.01 1.06 1.09 1.26 1.49 1.62 1.71 1.80 1.88 1.96 2.17 2.28 2.41 2.56 2.76 2.65 2.57 2.48 2.45 2.37 2.24 2.14
1.19 1.38 1.39 0.87 0.72 1.06 1.34 1.13 1.15 1.17 1.14 1.15 1.01 0.87 0.86 0.92 0.89 0.85 0.86 1.00 1.10 1.23 1.28 1.21 1.20 1.33 1.54 1.68 1.78 1.96 1.99 2.08 2.16 2.32 2.40 2.56 2.96 2.95 2.98 2.99 2.79 2.65 2.51 2.38
1.52 1.53 1.24 1.06 1.11 1.18 1.27 1.24 1.25 1.10 0.98 1.01 0.98 0.92 0.97 1.07 1.07 0.98 0.96 1.07 1.12 1.26 1.35 1.39 1.48 1.63 1.80 1.86 1.95 2.05 2.20 2.36 2.45 2.53 2.69 2.82 2.98 3.03 3.06 3.02 2.84 2.67 2.53 2.32
1.68 1.56 1.40 1.26 1.16 1.21 1.37 1.33 1.21 1.06 1.01 1.01 1.02 0.95 0.91 0.94 1.01 1.00 0.97 1.08 1.20 1.32 1.55 1.69 1.76 1.88 2.04 2.14 2.25 2.41 2.56 2.66 2.69 2.72 2.75 2.81 2.97 2.97 2.97 2.91 2.77 2.67 2.58 2.40
1.86 1.78 1.72 1.51 1.21 1.12 1.15 1.13 1.05 1.07 1.03 1.02 1.06 1.00 0.93 0.92 0.94 1.00 1.12 1.21 1.31 1.50 1.71 1.77 1.89 2.01 2.14 2.37 2.60 2.68 2.70 2.68 2.64 2.66 2.77 2.85 2.83 2.80 2.85 2.88 2.88 2.86 2.78 2.75
2.10 1.86 1.83 1.70 1.37 1.19 1.08 1.01 1.00 1.14 1.17 1.08 1.08 1.11 1.06 1.08 1.09 1.12 1.20 1.34 1.48 1.65 1.82 1.92 2.07 2.20 2.32 2.54 2.84 3.03 2.93 2.85 2.83 2.85 2.86 2.81 2.78 2.73 2.77 2.68 2.63 2.59 2.61 2.68
1.75 1.61 1.57 1.53 1.44 1.30 1.12 1.06 1.04 1.21 1.26 1.23 1.18 1.18 1.20 1.24 1.26 1.26 1.31 1.42 1.53 1.64 1.79 1.90 1.99 2.17 2.34 2.60 2.85 3.10 3.05 2.96 3.00 3.09 3.13 3.02 2.96 2.90 2.92 2.79 2.61 2.43 2.44 2.54
1.62 1.67 1.75 1.62 1.56 1.42 1.28 1.28 1.32 1.44 1.44 1.44 1.42 1.37 1.40 1.47 1.42 1.44 1.55 1.64 1.60 1.71 1.80 1.92 2.00 2.07 2.18 2.44 2.70 2.85 2.97 3.07 3.03 3.03 3.07 2.96 2.93 2.94 2.93 2.82 2.67 2.46 2.37 2.40
1.65 1.73 1.83 1.74 1.63 1.56 1.42 1.40 1.51 1.58 1.56 1.55 1.57 1.68 1.82 1.85 1.71 1.60 1.59 1.69 1.76 1.83 1.81 1.90 2.05 2.21 2.34 2.53 2.67 2.76 2.78 2.75 2.74 2.77 2.83 2.92 2.91 2.78 2.68 2.63 2.55 2.43 2.25 2.26
1.55 1.61 1.73 1.81 1.81 1.73 1.58 1.58 1.67 1.57 1.57 1.71 1.77 1.81 1.82 1.85 1.89 1.82 1.68 1.68 1.86 1.93 1.92 1.96 2.05 2.18 2.35 2.47 2.56 2.65 2.72 2.79 2.76 2.64 2.62 2.68 2.68 2.60 2.50 2.45 2.46 2.45 2.27 2.25
1.80 1.87 1.89 1.99 2.03 1.80 1.71 1.66 1.66 1.63 1.57 1.68 1.78 1.79 1.79 1.83 1.97 2.06 1.99 1.95 2.00 2.03 2.08 2.12 2.09 2.17 2.32 2.57 2.68 2.59 2.46 2.43 2.57 2.54 2.51 2.58 2.63 2.63 2.57 2.54 2.48 2.39 2.24 2.18
1.80 1.79 1.85 1.99 2.10 1.95 1.89 1.83 1.78 1.82 1.83 1.87 1.94 1.86 1.86 1.93 2.02 2.06 2.07 2.03 2.00 1.94 1.92 2.04 2.06 2.06 2.17 2.53 2.81 2.69 2.48 2.36 2.25 2.29 2.37 2.49 2.58 2.61 2.53 2.52 2.45 2.29 2.13 2.05
1.77 1.75 1.78 1.91 1.94 1.93 1.98 2.00 1.91 1.85 1.87 1.91 2.04 1.99 2.02 2.07 2.06 1.98 2.00 2.02 2.02 2.00 1.95 2.00 2.12 2.01 2.05 2.27 2.51 2.46 2.32 2.23 2.17 2.19 2.35 2.55 2.58 2.46 2.37 2.33 2.35 2.27 2.15 2.09
1.83 1.82 1.82 1.85 1.88 1.91 1.92 1.91 1.93 1.93 1.93 1.97 1.97 1.92 2.01 2.10 2.11 1.97 1.96 1.97 1.94 2.00 2.04 2.02 1.83 1.81 1.94 2.19 2.36 2.26 2.27 2.25 2.17 2.15 2.27 2.45 2.47 2.37 2.15 2.09 2.12 2.11 2.00 1.92
1.95 1.91 1.87 1.89 1.92 1.88 1.90 1.92 1.97 2.00 2.04 2.00 1.98 1.95 2.05 2.13 2.13 2.12 2.14 2.11 1.96 1.91 1.93 2.01 1.78 1.69 1.73 2.05 2.24 2.09 2.12 2.18 2.18 2.18 2.24 2.32 2.28 2.19 2.06 2.01 1.93 1.84 1.81 1.81
1.94 1.94 1.93 1.95 1.97 1.95 1.84 1.85 1.90 1.90 1.93 1.92 1.89 1.90 2.01 2.14 2.18 2.13 2.02 2.10 2.06 2.05 1.85 1.83 1.72 1.74 1.77 1.89 1.94 2.08 2.08 2.12 2.16 2.13 2.14 2.20 2.28 2.21 2.03 1.97 1.95 1.86 1.79 1.79
1.91 1.85 1.85 1.94 1.99 1.93 1.75 1.74 1.74 1.79 1.79 1.77 1.84 1.93 2.05 2.12 2.12 2.15 2.00 1.83 1.85 1.96 1.79 1.72 1.72 1.68 1.62 1.55 1.68 1.92 2.03 2.08 2.10 2.11 2.09 2.09 2.17 2.12 2.00 1.92 1.91 1.85 1.82 1.77
1.86 1.78 1.74 1.82 1.84 1.87 1.92 1.82 1.72 1.76 1.75 1.79 1.87 1.97 2.10 2.07 1.91 1.75 1.64 1.71 1.76 1.69 1.53 1.52 1.46 1.35 1.36 1.36 1.56 1.82 1.97 1.99 1.97 2.01 2.00 1.96 1.95 1.91 1.91 1.89 1.84 1.74 1.69 1.62
1.87 1.77 1.74 1.82 1.89 1.96 1.97 1.91 1.84 1.82 1.81 1.84 1.89 1.92 1.95 2.00 1.98 1.77 1.57 1.54 1.65 1.55 1.40 1.44 1.45 1.41 1.32 1.41 1.56 1.71 1.82 1.86 1.90 1.92 1.81 1.69 1.66 1.72 1.78 1.79 1.77 1.74 1.68 1.55
1.82 1.81 1.87 1.92 1.95 1.97 1.98 2.01 2.05 2.00 2.04 2.06 1.99 1.92 1.88 1.86 1.83 1.73 1.64 1.53 1.56 1.53 1.36 1.36 1.38 1.34 1.30 1.41 1.56 1.68 1.72 1.72 1.72 1.76 1.76 1.72 1.68 1.70 1.77 1.74 1.69 1.66 1.54 1.40
1.78 1.81 1.89 1.91 1.89 1.85 1.90 2.06 2.25 2.26 2.28 2.29 2.25 2.14 2.04 1.92 1.81 1.72 1.65 1.61 1.60 1.54 1.48 1.45 1.42 1.37 1.36 1.44 1.59 1.69 1.73 1.74 1.71 1.66 1.67 1.71 1.75 1.69 1.65 1.62 1.57 1.47 1.35 1.29